"Pseudo-MPEC" for TF26H89

Created 2026 Aug 18 3:35:22 UT using Find_Orb

Click here for an explanation of pseudo-MPECs

 
 Astrometry: 
     TF26H89* C2026 08 17.42024600 38 14.664+11 57 50.36   ~8I35 18.77GVNEOCPU74
     TF26H89  C2026 08 17.42298600 38 28.185+11 55 15.48   ~8I35 18.77GVNEOCPU74

Station data:
(U74) JPL SynTrack Robotic Telescope 2, Auberry  (N37.070341 W119.412800)
   US/California.  Observers N. Saini, C. Zhai, R. Trahan, M. Zhan, M. Shao.
   0.36-m f/2.2 Schmidt.

Orbital elements:  TF26H89
   Perihelion 2026 Sep 30.382183 +/- 23.1 TT =  9:10:20.6 (JD 2461313.882183)
Epoch 2026 Aug 17.0 TT = JDT 2461269.5   Earth MOID: 0.0024   Ve: 0.0785
M 315.637668323 +/- 36              (J2000 ecliptic)             AutoNEOCP
n   0.999552718 +/- 0.648           Peri.  328.184410 +/- 53
a   0.990677378 +/- 0.428           Node   144.774473 +/- 25
e   0.84052341 +/- 0.229            Incl.   53.833281 +/- 34
P   0.986/360.154d         H 26.65  G  0.15   U 12.5  SR
q 0.157989843 +/- 0.342    Q 1.823364912 +/- 20.3
From 2 observations 2026 Aug. 17 (3.9 min); mean residual 0".00
Residuals in arcseconds: 
260817 U74  .00   .00     260817 U74  .00   .00     

Ephemerides (geocentric):
Date (UTC) HH   RA             Dec           delta  r     elong  mag " sig PA
---- --------  ------------   ------------  ------ ------ -----  --- --------
2026 08 18 04  07 23 47.990   -38 12 42.71  673616 1.0102  61.6 19.6  53d  82
2026 08 18 05  08 03 49.694   -38 08 57.03  748151 1.0096  56.9 20??  53d  83
2026 08 18 06  08 35 46.682   -37 29 03.88  834114 1.0090  53.5 20??  53d  83
2026 08 18 07  09 00 57.476   -36 33 55.46  928335 1.0084  51.0 21??  53d  83
2026 08 18 08  09 20 52.012   -35 34 58.71  .00688 1.0078  49.2 21??  54d  84
2026 08 18 09  09 36 46.802   -34 37 45.36  .00757 1.0072  47.9 22??  54d  84
2026 08 18 10  09 49 40.502   -33 44 35.21  .00830 1.0066  46.9 22??  54d  84
2026 08 18 11  10 00 16.417   -32 56 12.37  .00903 1.0060  46.1 22??  55d  85
2026 08 18 12  10 09 06.226   -32 12 36.17  .00978 1.0054  45.6 22??  55d  85
2026 08 18 13  10 16 33.196   -31 33 26.79  .01055 1.0048  45.1 23??  55d  85
2026 08 18 14  10 22 54.589   -30 58 17.71  .01132 1.0042  44.8 23??  55d  85
2026 08 18 15  10 28 23.373   -30 26 41.50  .01209 1.0036  44.5 23??  55d  86
2026 08 18 16  10 33 09.419   -29 58 12.41  .01287 1.0030  44.2 23??  55d  86
2026 08 18 17  10 37 20.346   -29 32 27.30  .01366 1.0024  44.1 23??  54d  86
2026 08 18 18  10 41 02.106   -29 09 05.89  .01445 1.0018  43.9 23??  54d  86
2026 08 18 19  10 44 19.405   -28 47 50.55  .01524 1.0012  43.8 23??  54d  86
2026 08 18 20  10 47 16.009   -28 28 26.10  .01603 1.0006  43.6 24??  54d  87
2026 08 18 21  10 49 54.961   -28 10 39.47  .01683 1.0000  43.5 24??  54d  87
2026 08 18 22  10 52 18.742   -27 54 19.40  .01763 0.9994  43.5 24??  54d  87
2026 08 18 23  10 54 29.398   -27 39 16.20  .01843 0.9988  43.4 24??  54d  87
2026 08 19 00  10 56 28.626   -27 25 21.47  .01924 0.9982  43.3 24??  53d  87
2026 08 19 01  10 58 17.844   -27 12 27.96  .02004 0.9976  43.3 24??  53d  87
2026 08 19 02  10 59 58.250   -27 00 29.36  .02085 0.9970  43.2 24??  53d  87
2026 08 19 03  11 01 30.858   -26 49 20.15  .02165 0.9964  43.2 24??  53d  88
2026 08 19 04  11 02 56.534   -26 38 55.52  .02246 0.9958  43.1 24??  53d  88
2026 08 19 05  11 04 16.021   -26 29 11.25  .02327 0.9952  43.1 24??  52d  88
2026 08 19 06  11 05 29.962   -26 20 03.61  .02408 0.9946  43.0 24??  52d  88
2026 08 19 07  11 06 38.911   -26 11 29.30  .02489 0.9940  43.0 25??  52d  88
2026 08 19 08  11 07 43.355   -26 03 25.42  .02570 0.9934  42.9 25??  52d  88
2026 08 19 09  11 08 43.716   -25 55 49.37  .02651 0.9928  42.9 25??  52d  88
2026 08 19 10  11 09 40.369   -25 48 38.83  .02732 0.9922  42.9 25??  51d  88
2026 08 19 11  11 10 33.642   -25 41 51.74  .02813 0.9916  42.8 25??  51d  88
2026 08 19 12  11 11 23.826   -25 35 26.25  .02894 0.9910  42.8 25??  51d  88
2026 08 19 13  11 12 11.182   -25 29 20.69  .02975 0.9904  42.8 25??  51d  89
2026 08 19 14  11 12 55.938   -25 23 33.56  .03057 .98977  42.7 25??  51d  89
2026 08 19 15  11 13 38.303   -25 18 03.50  .03138 .98917  42.7 25??  51d  89
2026 08 19 16  11 14 18.462   -25 12 49.28  .03219 .98856  42.7 25??  50d  89
2026 08 19 17  11 14 56.580   -25 07 49.79  .03301 .98796  42.6 25??  50d  89
2026 08 19 18  11 15 32.808   -25 03 04.01  .03382 .98735  42.6 25??  50d  89
2026 08 19 19  11 16 07.284   -24 58 31.02  .03464 .98674  42.6 25??  50d  89
2026 08 19 20  11 16 40.128   -24 54 09.98  .03545 .98613  42.6 25??  50d  89
2026 08 19 21  11 17 11.455   -24 50 00.11  .03627 .98553  42.5 25??  50d  89
2026 08 19 22  11 17 41.364   -24 46 00.70  .03708 .98492  42.5 25??  50d  89
2026 08 19 23  11 18 09.951   -24 42 11.12  .03790 .98431  42.5 25??  49d  89
2026 08 20 00  11 18 37.299   -24 38 30.74  .03871 .98370  42.4 25??  49d  89
2026 08 20 01  11 19 03.487   -24 34 59.04  .03953 .98309  42.4 26??  49d  89
2026 08 20 02  11 19 28.586   -24 31 35.49  .04034 .98248  42.4 26??  49d  89
2026 08 20 03  11 19 52.662   -24 28 19.63  .04116 .98187  42.3 26??  49d  89